Dewpoint
49 50 51 52 53 53 53 53 54 53 53 53 54 55 54 53 51 39 36 43 53 58 57 48 35 28 29 26 27 28 22 20 21 26 27 23 29 29 35 34 34 34 34 36 36
49 49 50 50 51 52 52 53 53 53 53 53 53 54 54 52 40 36 44 53 57 59 39 31 26 26 24 24 25 26 23 23 23 21 20 24 25 32 29 26 29 35 33 33 35
49 50 50 50 50 51 52 52 53 53 53 53 53 55 53 45 33 32 51 52 56 56 44 38 33 30 25 24 23 23 21 24 27 27 27 27 27 28 31 27 28 29 34 33 33
49 50 50 50 50 50 51 52 53 53 53 52 53 55 51 38 19 37 52 51 54 48 41 33 27 27 25 23 26 22 26 26 29 30 28 26 27 25 27 28 31 33 34 33 32
50 51 51 51 51 50 50 52 53 53 53 53 54 54 39 26 28 37 50 46 42 38 36 31 28 27 23 26 26 24 27 29 29 29 27 28 25 25 26 28 29 34 33 33 32
50 51 52 52 52 51 50 51 53 53 53 52 53 52 36 21 37 36 38 40 38 37 36 33 28 29 27 27 23 27 27 27 28 26 28 27 25 26 24 31 30 33 33 33 33
51 51 52 52 53 52 50 51 52 53 53 51 52 39 30 25 34 35 37 40 40 37 33 36 35 24 27 26 29 27 23 25 25 25 25 27 17 25 26 31 30 32 33 32 33
52 53 52 52 53 53 50 51 52 52 52 50 50 32 24 35 34 35 37 37 39 36 34 34 33 30 27 28 25 23 22 14 22 24 26 20 6 18 26 28 28 29 29 29 29
53 53 53 53 54 53 51 52 52 50 50 50 35 27 20 39 33 35 37 35 37 34 36 32 32 30 27 24 21 19 5 15 15 24 24 24 17 17 26 28 27 27 27 27 28
53 53 53 53 54 54 52 52 50 45 40 33 29 22 28 28 32 35 36 37 33 33 30 32 29 22 24 22 11 13 8 11 13 20 24 23 22 23 23 23 23 24 26 27 27
54 53 53 53 54 52 45 36 32 30 30 22 26 27 30 32 34 31 36 35 33 24 18 29 21 12 24 26 22 17 18 17 15 25 23 22 22 20 21 22 23 24 26 25 25
54 54 53 54 53 51 44 32 30 30 20 30 31 31 32 33 28 28 35 28 26 19 26 19 15 26 28 25 23 20 17 13 14 21 24 22 24 24 24 24 24 23 24 25 25
55 54 53 53 53 42 40 35 42 38 22 24 28 28 29 31 27 25 33 29 25 24 27 15 24 28 25 24 20 22 19 16 15 24 24 23 6 2 18 24 25 24 26 27 25
55 54 53 53 43 41 37 43 43 41 25 20 22 27 32 30 22 31 32 28 26 23 23 23 27 25 23 24 22 11 24 23 23 21 2 16 -2 -1 14 17 21 22 23 24 26
55 54 53 50 40 37 41 44 44 37 11 21 24 32 31 26 24 25 33 29 20 24 22 21 23 22 22 23 26 18 27 24 24 23 21 16 10 2 11 13 13 14 18 24 25
55 54 53 47 41 41 43 43 39 26 12 20 24 27 26 28 28 28 27 30 29 23 25 26 29 27 26 27 28 29 25 24 25 21 8 18 2 -0 4 10 10 18 23 23 24
55 54 50 44 35 43 44 38 27 18 23 20 20 26 22 25 25 24 21 21 21 16 16 22 23 26 28 24 28 25 16 9 9 8 7 14 10 5 -0 9 12 13 18 22 24
54 54 50 41 45 45 40 31 12 19 23 23 25 25 19 23 23 23 21 17 22 23 18 18 18 22 28 26 22 21 14 12 -8 3 5 11 7 1 9 13 17 20 21 24 25
54 48 44 44 45 45 35 20 20 22 26 22 20 21 21 22 22 20 18 20 21 23 21 16 15 26 28 29 25 23 22 20 12 10 12 7 6 12 10 14 13 16 20 22 22
51 47 44 45 46 42 32 23 20 27 25 23 21 22 21 20 20 20 18 21 22 23 24 21 14 25 25 29 27 24 23 16 16 -4 -1 10 7 8 5 7 9 15 20 22 21
48 44 44 45 44 37 27 25 23 30 24 22 26 21 20 18 21 21 20 21 22 23 22 23 23 21 20 21 20 21 21 17 18 16 7 6 10 16 7 3 1 9 18 19 19
46 35 43 44 34 30 28 26 30 32 29 25 27 27 22 21 22 22 22 23 22 23 11 19 22 18 16 23 24 25 18 15 14 9 15 15 11 16 17 9 13 14 17 19 20
41 38 43 42 30 27 25 28 29 28 25 25 31 31 25 23 21 24 25 25 22 18 14 19 17 15 21 23 22 22 23 19 20 19 13 11 16 23 23 17 18 19 22 23 23
38 31 35 39 31 29 25 27 25 31 28 26 26 28 30 28 27 25 24 27 27 25 32 27 21 26 24 25 19 14 21 22 19 14 14 15 17 20 24 22 22 20 23 23 24
39 32 33 29 32 28 27 27 24 27 28 27 26 27 30 28 27 26 27 26 27 29 24 19 20 15 18 21 18 17 18 21 17 15 15 23 18 24 26 26 26 27 27 27 26
33 32 35 32 33 31 30 27 24 25 26 25 25 26 31 28 28 27 27 25 21 27 19 22 22 19 22 18 21 18 20 21 22 20 18 20 20 20 21 24 25 26 27 26 26
43 43 39 35 33 31 29 26 26 27 28 27 27 27 30 33 33 30 30 28 27 24 20 24 23 24 22 15 15 21 23 21 22 23 20 18 23 27 25 22 23 24 24 24 21
Lifted_Index
15 15 15 14 14 14 13 13 13 12 12 12 12 12 13 14 14 13 12 11 10 9 10 11 11 11 11 10 10 8 5 4 5 5 6 8 9 10 11 11 12 12 12 12 12
15 15 15 14 14 14 14 13 13 13 12 12 12 12 13 14 13 13 13 11 10 9 10 11 11 10 10 9 9 7 5 5 6 6 7 8 9 10 10 10 11 12 12 12 12
15 15 15 15 14 14 14 13 13 13 12 12 12 12 13 13 12 12 13 12 10 10 11 11 11 9 8 8 8 6 6 6 7 8 8 8 9 9 9 10 11 12 12 12 12
15 14 14 14 14 14 14 13 13 13 12 13 12 13 13 12 10 11 13 12 11 11 11 11 10 8 7 7 7 6 6 7 8 9 9 9 9 9 10 11 12 12 12 12 12
14 14 14 14 14 14 14 13 13 12 12 12 13 13 13 11 11 12 13 13 12 12 11 10 9 7 7 6 6 6 6 7 8 9 9 8 8 9 10 12 12 13 12 13 13
13 13 13 13 13 13 13 13 12 12 12 12 13 13 12 10 12 13 13 13 12 12 11 10 9 8 7 7 7 7 7 7 8 8 8 8 7 8 10 11 12 12 13 13 13
13 13 13 12 12 13 13 13 12 12 12 13 13 13 11 11 12 13 13 12 12 12 11 11 10 9 8 7 7 7 6 6 7 7 8 7 6 7 9 10 11 12 12 12 12
12 12 12 12 12 12 13 13 12 13 13 13 13 12 10 11 13 13 13 12 12 12 12 12 11 9 8 7 7 6 5 5 6 7 7 6 5 6 8 9 10 11 11 11 11
12 12 12 12 12 12 13 13 13 13 14 14 13 11 10 11 12 12 12 12 12 12 11 11 10 8 7 6 5 4 4 4 5 6 6 5 5 6 8 9 9 10 11 11 11
11 12 12 12 11 12 13 13 13 13 13 12 11 10 9 10 12 12 12 12 11 10 10 9 8 7 6 5 4 4 4 4 5 5 5 4 5 6 7 8 8 9 10 11 11
11 11 11 11 11 12 13 12 11 11 11 10 10 9 10 10 11 11 12 11 10 9 7 7 6 5 5 5 5 4 4 4 5 5 5 4 4 5 6 7 8 9 10 11 11
10 11 11 11 11 12 13 12 11 10 9 9 9 9 10 10 9 10 10 9 8 7 6 6 5 5 6 6 5 4 4 4 5 6 5 4 4 4 5 6 7 9 10 11 11
10 10 11 11 11 12 12 12 12 10 8 8 8 9 10 9 8 9 10 9 7 6 6 6 6 6 6 5 5 4 4 4 5 5 5 4 3 4 5 6 7 8 9 10 11
9 10 10 11 11 11 11 12 12 10 7 6 7 9 9 8 8 9 10 9 7 6 6 6 6 6 6 5 5 5 5 5 4 4 4 4 3 3 4 5 6 7 9 10 11
9 9 10 11 10 10 11 12 11 8 5 5 7 9 9 7 7 8 10 9 7 6 6 6 6 6 5 5 5 5 5 5 5 4 3 3 3 3 4 4 5 6 8 10 10
8 9 10 11 10 10 11 11 9 6 4 5 6 7 6 6 5 6 8 8 7 5 5 6 6 6 6 5 6 6 5 4 4 3 2 3 3 3 4 4 5 6 8 9 10
8 9 10 11 10 11 11 9 6 5 5 5 5 5 4 4 4 4 5 5 4 4 4 5 5 5 6 5 5 5 5 3 2 1 2 3 3 3 4 5 6 7 8 9 10
7 8 10 11 11 11 10 7 5 6 6 5 4 3 3 3 3 3 3 3 3 3 3 3 4 4 5 6 5 5 4 3 2 1 2 3 3 4 5 6 7 8 8 9 10
6 7 9 10 11 11 9 6 6 6 6 5 4 3 2 2 2 2 2 2 2 3 3 3 3 4 5 6 6 5 4 4 3 2 1 2 3 4 5 6 7 7 8 9 10
5 6 8 10 11 10 8 7 7 7 7 5 4 3 2 1 1 1 2 2 2 2 2 3 3 3 4 5 5 5 4 4 3 2 1 1 2 4 5 6 6 6 7 8 8
4 5 7 9 10 10 9 8 8 8 7 5 4 3 2 1 1 1 1 2 2 2 2 3 3 3 4 4 4 4 4 4 3 2 1 1 2 4 5 5 5 6 6 7 7
4 5 7 8 9 9 9 9 8 8 7 6 4 3 2 1 0 0 1 2 2 2 2 2 3 3 3 4 4 4 3 3 3 3 2 2 2 4 5 5 5 5 6 6 7
4 5 7 8 8 8 9 9 8 7 7 6 5 4 3 2 1 1 1 2 2 2 2 2 3 3 3 4 4 4 3 3 4 3 3 2 2 3 4 4 5 5 6 6 6
5 5 6 7 7 8 8 8 8 7 7 6 5 4 3 3 2 2 1 2 2 2 2 2 3 3 3 4 4 4 3 4 4 3 2 2 2 2 3 4 4 5 6 6 6
5 5 5 5 5 6 7 7 7 7 7 6 5 5 4 3 3 2 2 1 1 2 2 2 3 3 3 4 4 4 3 3 3 3 3 2 2 2 3 4 4 5 6 7 7
7 6 5 4 4 4 5 6 7 7 7 6 5 4 4 3 3 2 2 1 1 1 2 2 2 3 3 4 4 4 3 3 3 3 3 3 3 3 3 3 4 5 6 7 7
8 7 6 4 3 3 4 5 6 7 7 6 5 4 3 3 3 2 2 1 1 1 1 2 2 3 3 4 4 3 3 3 3 3 3 3 3 3 3 3 4 5 6 7 7